Elkins, WV

2:54 PM EDT on September 18, 2019 (GMT -0400)
Elkins-Randolph County

Weather History for KEKN - August, 2019

Change the Weather History Date:

Monday, August 26, 2019

  Actual Average Record
Temperature  
Mean Temperature 64 °F 68 °F  
Max Temperature 78 °F 79 °F 94 °F (1948)
Min Temperature 49 °F 57 °F 41 °F (1917)
Degree Days  
Heating Degree Days 2 1  
Month to date heating degree days 6 11  
Since 1 June heating degree days 45 78  
Since 1 July heating degree days 6 23  
Cooling Degree Days 0 4  
Month to date cooling degree days 182 124  
Year to date cooling degree days 652 405  
Since 1 June cooling degree days 569 382  
Growing Degree Days 14 (Base 50)    
Moisture  
Dew Point 51 °F    
Average Humidity 67    
Maximum Humidity 90    
Minimum Humidity 40    
Precipitation  
Precipitation 0.01 in 0.11 in 1.80 in (1940)
Month to date precipitation 5.51 3.28  
Year to date precipitation 37.13 32.25  
Sea Level Pressure  
Sea Level Pressure 30.13 in    
Wind  
Wind Speed 3 mph ()    
Max Wind Speed 15 mph    
Max Gust Speed 21 mph    
Visibility 10.0 miles    
Events Rain    
T = Trace of Precipitation, MM = Missing Value Source: Averaged Metar Reports

Daily Weather History Graph

Daily Weather History Graph

Search for Another Location

Airport or City:

Astronomy

Aug. 26, 2019 Rise Set
Actual Time 6:42 AM EDT 7:59 PM EDT
Civil Twilight 6:15 AM EDT 8:26 PM EDT
Nautical Twilight 5:41 AM EDT 8:59 PM EDT
Astronomical Twilight 5:07 AM EDT 9:34 PM EDT
Moon 2:08 AM EDT (8/26) 5:18 PM EDT (8/26)
Length of Visible Light 14h 11m
Length of Day
13h 16m
Waning Crescent, 19% of the Moon is Illuminated
Aug 26
Waning Crescent
Aug 30
New
Sep 5
First Quarter
Sep 14
Full
Sep 21
Last Quarter

Hourly Weather History & Observations

Time (EDT) Temp. Dew Point Humidity Pressure Visibility Wind Dir Wind Speed Gust Speed Precip Events Conditions
12:51 AM 55.0 °F 48.9 °F 80% 30.18 in 10.0 mi Calm Calm - N/A   Clear
1:51 AM 52.0 °F 48.9 °F 89% 30.17 in 10.0 mi Calm Calm - N/A   Clear
2:51 AM 52.0 °F 48.0 °F 86% 30.17 in 10.0 mi Calm Calm - N/A   Clear
3:51 AM 51.1 °F 48.0 °F 89% 30.16 in 10.0 mi Calm Calm - N/A   Clear
4:51 AM 50.0 °F 46.9 °F 89% 30.17 in 10.0 mi Calm Calm - N/A   Clear
5:51 AM 50.0 °F 46.0 °F 86% 30.17 in 10.0 mi Calm Calm - N/A   Clear
6:51 AM 50.0 °F 46.9 °F 89% 30.17 in 10.0 mi Calm Calm - N/A   Clear
7:51 AM 55.9 °F 51.1 °F 84% 30.19 in 10.0 mi Calm Calm - N/A   Clear
8:51 AM 63.0 °F 51.1 °F 65% 30.19 in 10.0 mi Variable 4.6 mph - N/A   Clear
9:51 AM 64.9 °F 51.1 °F 61% 30.18 in 10.0 mi SE 8.1 mph - N/A   Clear
10:51 AM 68.0 °F 50.0 °F 52% 30.17 in 10.0 mi Variable 4.6 mph - N/A   Clear
11:51 AM 72.0 °F 51.1 °F 48% 30.14 in 10.0 mi Variable 5.8 mph - N/A   Clear
12:51 PM 73.9 °F 51.1 °F 45% 30.12 in 10.0 mi SSE 10.4 mph - N/A   Scattered Clouds
1:51 PM 75.0 °F 51.1 °F 43% 30.11 in 10.0 mi SE 9.2 mph 17.3 mph N/A   Clear
2:51 PM 75.0 °F 52.0 °F 44% 30.09 in 10.0 mi SE 9.2 mph 17.3 mph N/A   Partly Cloudy
3:51 PM 77.0 °F 52.0 °F 42% 30.07 in 10.0 mi SSE 10.4 mph 20.7 mph N/A   Clear
4:51 PM 75.0 °F 52.0 °F 44% 30.07 in 10.0 mi Variable 4.6 mph - N/A   Partly Cloudy
5:51 PM 73.0 °F 53.1 °F 49% 30.08 in 10.0 mi South 5.8 mph - N/A   Clear
6:51 PM 71.1 °F 52.0 °F 51% 30.07 in 10.0 mi SSE 8.1 mph - N/A   Clear
7:51 PM 68.0 °F 54.0 °F 61% 30.08 in 10.0 mi South 3.5 mph - N/A   Clear
8:51 PM 66.9 °F 54.0 °F 63% 30.08 in 10.0 mi SE 4.6 mph - N/A   Partly Cloudy
9:51 PM 66.0 °F 55.9 °F 70% 30.08 in 10.0 mi SSE 5.8 mph - 0.00 in Rain Light Rain
10:51 PM 63.0 °F 57.0 °F 81% 30.09 in 10.0 mi Calm Calm - 0.00 in Rain Light Rain
11:51 PM 63.0 °F 59.0 °F 87% 30.08 in 10.0 mi SE 3.5 mph - 0.00 in Rain Light Rain